Miscellaneous Local Product
Issued by NWS Hastings, NE

Home | Current Version | Previous Version | Graphics & Text | Print | Product List | Glossary On
Versions: 1 2 3 4 5 6 7 8 9 10 11 12 13 14 15 16 17 18 19 20 21 22 23 24 25 26 27 28 29 30 31 32 33 34 35 36 37 38 39 40 41 42 43 44 45 46 47 48 49 50
000
AXUS43 KGID 260402
MISGRI

GID CWA HOURLY WEATHER ROUNDUP
NATIONAL WEATHER SERVICE HASTINGS NE
1100 PM CDT TUE APR 25 2017

NOTE: "FAIR" INDICATES FEW OR NO CLOUDS BELOW 12,000 FEET WITH NO
SIGNIFICANT WEATHER AND/OR OBSTRUCTIONS TO VISIBILITY.

...SOUTH CENTRAL NEBRASKA...

CITY           SKY/WX    TMP DP  RH WIND       PRES   REMARKS
GRAND ISLAND   CLOUDY    38  35  89 N18       29.71R WCI  28
HASTINGS       CLOUDY    39  34  82 N21       29.70R WCI  29
KEARNEY        CLOUDY    37  30  75 N16G28    29.73R WCI  28
ORD            CLOUDY    37  32  82 N22G29    29.72F WCI  26
YORK           CLOUDY    39  36  87 N18G28    29.67R WCI  30
AURORA         CLOUDY    38  35  87 N18       29.69R WCI  29
LEXINGTON      CLOUDY    37  32  84 N21       29.76R WCI  26
HOLDREGE       CLOUDY    37  33  85 N18G25    29.73R WCI  27
HEBRON         CLOUDY    42  35  79 N13G22    29.67R

...NEBRASKA PANHANDLE...

CITY           SKY/WX    TMP DP  RH WIND       PRES   REMARKS
CHADRON        CLOUDY    29  25  85 N10       29.91R WCI  20
ALLIANCE       CLOUDY    30  24  78 N15       29.85R WCI  19
SCOTTSBLUFF    CLOUDY    32  24  72 N9        29.89R WCI  24
SIDNEY         CLOUDY    32  29  88 N10       29.84R WCI  24

...WESTERN AND NORTH CENTRAL NEBRASKA...

CITY           SKY/WX    TMP DP  RH WIND       PRES   REMARKS
VALENTINE      CLOUDY    32  25  75 N17G24    29.83R WCI  21
AINSWORTH      CLOUDY    32  31  94 N18G24    29.80S WCI  20
ONEILL         CLOUDY    35  32  88 N21       29.76R WCI  24
BROKEN BOW     CLOUDY    35  31  85 N21G29    29.75R WCI  24
IMPERIAL       CLOUDY    37  32  82 N15       29.80R WCI  28
NORTH PLATTE   CLOUDY    36  29  75 N13       29.79R WCI  27
MCCOOK         CLOUDY    40  33  76 N20       29.77R WCI  30

...EASTERN NEBRASKA...

CITY           SKY/WX    TMP DP  RH WIND       PRES   REMARKS
NORFOLK        CLOUDY    36  32  85 N24G30    29.67F WCI  24
SO SIOUX CITY  CLOUDY    39  38  96 N17       29.64R WCI  30
TEKAMAH        LGT RAIN  41  38  89 NW20      29.63S
COLUMBUS       CLOUDY    37  32  81 N16G26    29.68S WCI  28
ALBION         CLOUDY    37  34  87 N18G24    29.70S WCI  27
OMAHA EPPLEY   CLOUDY    44  40  85 N13       29.61R
OFFUTT AFB     CLOUDY    43  41  93 NW15G23   29.59S
MILLARD        CLOUDY    45  42  88 NW13G20   29.62R
LINCOLN        CLOUDY    42  38  85 N17       29.65R
NEBRASKA CITY  CLOUDY    44  40  86 N16       29.60R
BEATRICE       CLOUDY    42  40  91 N21       29.64R
FALLS CITY     LGT RAIN  46  42  86 N14G26    29.56F

...NORTHERN KANSAS...

CITY           SKY/WX    TMP DP  RH WIND       PRES   REMARKS
GOODLAND       CLOUDY    42  37  82 N20       29.75R
HILL CITY      CLOUDY    42  37  82 N16G24    29.72R
NORTON         CLOUDY    37  30  75 NW20G25   29.72S WCI  27
PHILLIPSBURG   CLOUDY    43  36  75 N17G25    29.71S
SMITH CENTER   CLOUDY    39  34  81 N17G23    29.70R WCI  30
HAYS           CLOUDY    44  38  79 N21       29.67R
RUSSELL        CLOUDY    43  37  79 N20       29.66R
CONCORDIA      CLOUDY    43  37  79 N16G26    29.65R
SALINA         CLOUDY    47  40  76 N18       29.64R
TOPEKA         CLOUDY    50  46  86 N13G21    29.57R



USA.gov is the U.S. government's official web portal to all federal, state and local government web resources and services.